Погода Жамбейты

Погода Жамбейты : погода сейчас, прогноз погоды и архив. Всё, что Вы хотите узнать о погоде Жамбейты!

Хотите узнать прогноз погоды Жамбейты? Тогда Вам сюда: Погода Жамбейты

Поиск расширенной информации на нашем сайте:

Полезная информация: Фантастика, мистика, ужасы, лучшие драмы смотреть онлайн без регистрации

Другие новости

Новости СМИ2

Главная страница сайта

Новости сайта

03.07.2017

Напоминаем, что на нашем специализированном сайте Метеоцентр.Азия вы можете получить высокодетализированные автоматические прогнозы погоды по пунктам России, СНГ и мира в авиационном формате (включающие направление и скорость ветра, видимость, явления погоды, количество и форму облачности, нижнюю и верхнюю границу облачности).

Рекомендуем: печать на баннере, оригинальная печать на баннере

Погода Жамбейты - сегодня

Время (UTC), дата Ветер
(°,м/с) 
Видим.   Явления Облачность Т
(°С)
Тd
(°С)
f(%) Тe
(°С)
Pmin
(гПа)
dP
(гПа)
Po
(мм)
O2
(г/м3)
Тmin Tmax R s Состояние
почвы
15 15.10.17 160 (Ю) н/о    8/3 600 м кучево-дожд., средняя 
[Cb cap|Ac trans]
+9.6 +9 96 +10  1007.5  -1.5  753  291    +12.8       
18 15.10.17 140 (ЮВ) н/о    8/0 средняя 
[Ac trans]
+7 +6.6 97 +6  1005.7  -1.9  751  294    +12.8       
21 15.10.17 140 (ЮВ) н/о  туман  ?/?  
+6.4 +6.4 100 +6  1002.8  -2.9  749  294           
00 16.10.17 160 (Ю) н/о  дымка{туман}  10/10 300 м 
[St]
+8.4 +8.4 100 +8  1000.7  -2  748  291           
03 16.10.17 160 (Ю) 4000 м  дымка  10/10 300 м 
[St]
+7.4 +7.4 100 +6  999.3  -1.4             
06 16.10.17 170 (Ю) 20000 м  {дождь, туман}  10/10 300 м 
[St]
+7.6 +7.6 100 +8  999.9  0.6  747  292  +6         
09 16.10.17 тихо ()   20000 м  {дождь}  9/9 600 м 
[Sc]
+8.2 +6.9 92 +8  999.7  -0.2  747  291           
12 16.10.17 120 (ЮВ) 20000 м  {дождь}  9/9 600 м кучево-дожд. 
[Cb cap]
+8.4 +6.2 86 +8  999.4  -0.3  747  291           
15 16.10.17 тихо ()   н/о  слаб. ливневой дождь  10/10 600 м кучево-дожд. 
[Cb cap]
+7.4 +6.5 94 +7  999.5  747  292    +9     
18 16.10.17 300 (СЗ) н/о  слаб. ливневой дождь  10/10 600 м кучево-дожд. 
[Cb cap]
+6.6 +6.4 99 +8  999.2  -0.3  747  293    +9     
21 16.10.17 190 (Ю) н/о  {ливн. осадки}  10/10 600 м кучево-дожд. 
[Cb cap]
+5 +4.8 99 +5  1000.2  747  295           
00 17.10.17 220 (ЮЗ) н/о  {ливн. осадки}  10/10 600 м кучево-дожд. 
[Cb cap]
+6.4 +6.4 100 +5  1000.7  0.5  748  293           
06 17.10.17 220 (ЮЗ) 20000 м  {ливн. осадки}  10/10 600 м кучево-дожд. 
[Cb cap]
+6.4 +6 97 +5  1003.5  1.5  750  294  +5       
09 17.10.17 200 (Ю) 20000 м  {ливн. осадки}  9/9 600 м кучево-дожд. 
[Cb cap]
+7.6 +5.4 86 +6  1004.4  0.9  750  293           
12 17.10.17 190 (Ю) 20000 м  {ливн. осадки}  9/9 600 м кучево-дожд. 
[Cb cap]
+7.5 +5.2 85 +7  1005.6  1.2  751  294           
15 17.10.17 тихо ()   н/о  слаб. ливневой дождь  9/9 600 м кучево-дожд. 
[Cb cap]
+7.2 +5.6 90 +7  1007.1  1.5  752  295    +8.4  0.3     
18 17.10.17 тихо ()   н/о  {ливн. осадки}  8/8 600 м кучево-дожд. 
[Cb cap]
+5.8 +4.9 94 +6  1007.9  0.8  753  296    +0.8  0.3     
21 17.10.17 тихо ()   н/о    9/9 600 м кучево-дожд. 
[Cb cap]
+5.8 +5.1 95 +6  1007.9  753  296           
00 18.10.17 тихо ()   н/о  дымка  ясно 
+4.6 +4.4 99 +5  1009.1  1.2  754  298           
03 18.10.17 тихо ()   20000 м    9/9 600 м 
[Sc]
+6.8 +5.9 94 +7  1011.1        0.0     
06 18.10.17 320 (СЗ) 20000 м    9/9 600 м 
[Sc diur, vesp]
+7.8 +5.8 87 +6  1013.3  2.2  757  296  +4    0.0     
09 18.10.17 290 (З) 20000 м    9/9 600 м 
[Sc diur, vesp]
+10 +4.1 67 +8  1014.4  1.1  758  294           
12 18.10.17 290 (З) 20000 м    3/3 600 м 
[Sc diur, vesp]
+11.2 +2.9 57 +10  1014.7  0.3  758  293           
15 18.10.17 250 (З) н/о    9/0 средняя 
[Ac As]
+7.6 +3.6 76 +6  1015.1  0.4  758  297    +12.5       
18 18.10.17 240 (ЮЗ) н/о    9/9 600 м кучево-дожд. 
[Cb cap]
+8.4 +4.8 78 +7  1014.5  -0.6  758  296    +12.5       
Время (UTC), дата Ветер
(°,м/с) 
Видим.   Явления Облачность Т
(°С)
Тd
(°С)
f(%) Тe
(°С)
Pmin
(гПа)
dP
(гПа)
Po
(мм)
O2
(г/м3)
Тmin Tmax R s Состояние
почвы

Для получения пояснительной информации подведите курсор к названию столбца.

ПОГОДА Жамбейты - архив

Всё, что Вы хотите узнать о погоде Жамбейты - удобно и подробно!

Выберите нужную дату (начиная с 1 января 2015* года) и нажмите кнопку "Найти".
Будут отображены архивные сводки погоды по пункту Жамбейты, начиная с указанной даты.


Отображать данные в формате CSV (для использования в таблицах Excel)


Внимание! Наш архив погоды предназначен исключительно для личного некоммерческого использования в познавательных целях. Если Вам необходимы официальные справки о состоянии погоды (для производственных, юридических, коммерческих и т.п. целей), обращайтесь в органы Росгидромета.

*Примечание: данная дата относится к архиву по метеостанциям СССР (Россия, СНГ, Балтия).
Архив по метеостанциям Зарубежной Европы и Азии (кроме Китая) хранится 10 дней, по другим регионам земного шара (Китай, Африка, Америка, Австралия, Океания) - 1 день.

Жамбейты - район местоположения метеостанции


Название, широта, долгота, высота метеостанции:
Жамбейты 50.2°ш. 52.6°д. 32 м над ур. моря [Казахстан]

Дополнительная информация

В oтличие oт бoльшинства пoгoдных сайтoв мы публикуем пoдрoбную метеoинфoрмацию в детальнoм прoфессиoнальнoм фoрмате.

Характеристики температуры и влажнoсти вoздуха измеряются на высoте 2 м в тени вдали oт зданий и деревьев.
Скoрoсть ветра измеряется на высoте 10 м (на урoвне рoста челoвека скoрoсть ветра ниже в 1.5-2 раза). Если метеoстанция нахoдится в гoрoде или в лесу, тo скoрoсть ветра занижена на 2-4 м/с пo сравнению с oткрытым местoм. Скoрoсть ветра над акватoриями крупных рек и oзёр, а также на вершинах хoлмoв на 2-5 м/с выше, чем в oбычных услoвиях.
Атмoсфернoе давление в разных тoчках местнoсти мoжет значительнo oтличаться oт давления на метеoстанции, в зависимoсти oт услoвий рельефа (при пoдъёме на 10 м давление пoнижается примернo на 1 мм рт.ст.).